TimeEST,TemperatureF,Dew PointF,Humidity,Sea Level PressureIn,VisibilityMPH,Wind Direction,Wind SpeedMPH,Gust SpeedMPH,PrecipitationIn,Events,Conditions,WindDirDegrees,DateUTC
12:53 AM,19.9,3.9,50,30.28,10.0,SSW,8.1,-,N/A,,Overcast,200,2013-01-19 05:53:00
1:53 AM,19.9,6.1,55,30.26,10.0,SSW,9.2,-,N/A,,Overcast,200,2013-01-19 06:53:00
2:53 AM,19.9,8.1,60,30.24,6.0,SSW,10.4,21.9,0.00,Snow,Light Snow,200,2013-01-19 07:53:00
3:53 AM,19.9,12.0,71,30.21,4.0,South,12.7,-,0.00,Snow,Light Snow,190,2013-01-19 08:53:00
4:53 AM,21.0,10.9,65,30.16,10.0,South,11.5,-,0.00,,Overcast,180,2013-01-19 09:53:00
5:53 AM,21.9,9.0,58,30.15,10.0,South,10.4,-,N/A,,Overcast,180,2013-01-19 10:53:00
6:53 AM,24.1,10.9,57,30.13,10.0,South,9.2,-,N/A,,Overcast,190,2013-01-19 11:53:00
7:53 AM,25.0,12.0,58,30.11,10.0,South,15.0,-,N/A,,Overcast,180,2013-01-19 12:53:00
8:53 AM,27.0,12.9,56,30.11,10.0,South,11.5,-,N/A,,Overcast,190,2013-01-19 13:53:00
9:53 AM,28.0,15.1,58,30.09,10.0,South,12.7,-,N/A,,Mostly Cloudy,180,2013-01-19 14:53:00
10:53 AM,30.9,16.0,54,30.05,10.0,South,12.7,-,N/A,,Clear,180,2013-01-19 15:53:00
11:53 AM,34.0,18.0,52,30.00,10.0,South,17.3,-,N/A,,Overcast,180,2013-01-19 16:53:00
12:53 PM,36.0,19.0,50,29.96,10.0,South,15.0,-,N/A,,Overcast,180,2013-01-19 17:53:00
1:53 PM,37.9,19.9,48,29.96,10.0,South,10.4,-,N/A,,Mostly Cloudy,180,2013-01-19 18:53:00
2:53 PM,39.9,21.0,47,29.95,10.0,Calm,Calm,-,N/A,,Overcast,0,2013-01-19 19:53:00
3:53 PM,39.9,21.9,49,29.94,10.0,South,4.6,-,N/A,,Overcast,180,2013-01-19 20:53:00
4:53 PM,39.0,23.0,53,29.94,10.0,South,8.1,-,N/A,,Overcast,180,2013-01-19 21:53:00
5:53 PM,37.9,24.1,57,29.94,10.0,South,11.5,-,N/A,,Overcast,180,2013-01-19 22:53:00
6:53 PM,39.9,21.0,47,29.93,10.0,SSW,8.1,-,N/A,,Clear,200,2013-01-19 23:53:00
7:53 PM,37.9,23.0,55,29.92,10.0,South,9.2,-,N/A,,Overcast,180,2013-01-20 00:53:00
8:53 PM,34.0,23.0,64,29.90,10.0,South,6.9,-,N/A,,Scattered Clouds,180,2013-01-20 01:53:00
9:53 PM,36.0,24.1,62,29.86,10.0,SSW,4.6,-,N/A,,Overcast,200,2013-01-20 02:53:00
10:53 PM,35.1,25.0,67,29.83,10.0,Calm,Calm,-,N/A,,Clear,0,2013-01-20 03:53:00
11:53 PM,35.1,25.0,67,29.79,10.0,Calm,Calm,-,N/A,,Overcast,0,2013-01-20 04:53:00